Location: Wanzleben
(52.0609°N, 11.4408°E)
Time: 19:14:28
(UTC+00:00)

Cosmos 2082 Rocket - Pass Details

Date: 18 September 2020
Orbit: 834 x 852 km, 71.0° (Epoch: 21 October)

Event Time Altitude Azimuth Distance (km) Brightness Sun altitude
Rises 20:38:33 0° 329° (NNW) 3,394 6.5 -27.9°
Reaches altitude 10° 20:41:01 10° 332° (NNW) 2,457 5.5 -28.2°
Enters shadow 20:46:14 67° 26° (NNE) 906 2.3 -28.7°
